[TLELIST]

  • This mailing list is a public mailing list - anyone may join or leave, at any time.
  • This mailing list is announce-only.

International Space Station (ISS) / Hubble Space Telescope (HST) / Chandra X-Ray Observatory Orbital Data via EMAIL

Privacy Policy:

Private list

Archived Messages

 

[TLELIST] Current TLEs

June 12th 2025 PDT

HST 1 20580U 90037B 25162.87683047 .00004542 00000-0 16727-3 0 9994 2 20580 28.4685 80.9077 0002578 36.3649 323.7121 15.25263214731870 ISS (ZARYA) 1 25544U 98067A 25163.44487209 .00008519 00000-0 15631-3 0 9997 2 25544 51.6380 330.5735 0001404 214.7053 237.6340 15.50140431514427 CXO 1 25867U 99040B 25164.14640100 .00000603 00000-0 00000-0 0 9993 2 25867 49.3981 129.9229 8427513 309.4372 0.0519 0.37799409 15937 ...Continue Reading

[TLELIST] Current TLEs

June 11th 2025 PDT

HST 1 20580U 90037B 25161.89536306 .00004509 00000-0 16604-3 0 9997 2 20580 28.4682 87.5597 0002555 25.8656 334.2066 15.25253996731728 ISS (ZARYA) 1 25544U 98067A 25161.94558248 .00007911 00000-0 14587-3 0 9996 2 25544 51.6366 338.0088 0001616 224.5670 135.5189 15.50112662514190 CXO 1 25867U 99040B 25164.14640100 .00000603 00000-0 00000-0 0 9993 2 25867 49.3981 129.9229 8427513 309.4372 0.0519 0.37799409 15937 ...Continue Reading

[TLELIST] Current TLEs

June 10th 2025 PDT

HST 1 20580U 90037B 25160.91388969 .00004889 00000-0 18075-3 0 9994 2 20580 28.4678 94.2118 0002514 15.2754 344.7916 15.25245466731570 ISS (ZARYA) 1 25544U 98067A 25160.86718932 .00008241 00000-0 15172-3 0 9992 2 25544 51.6386 343.3494 0001330 203.6332 254.6361 15.50093635514023 CXO 1 25867U 99040B 25161.50235525 .00000504 00000-0 00000-0 0 9991 2 25867 49.3467 130.0237 8431467 309.4256 0.0412 0.37803328 15918 ...Continue Reading

[TLELIST] Current TLEs

June 9th 2025 PDT

HST 1 20580U 90037B 25159.14722226 .00005081 00000-0 18828-3 0 9996 2 20580 28.4673 106.1852 0002429 355.4859 4.5713 15.25229293731300 ISS (ZARYA) 1 25544U 98067A 25160.34485962 .00008063 00000-0 14866-3 0 9990 2 25544 51.6394 345.9369 0001455 202.1962 219.3799 15.50083985513942 CXO 1 25867U 99040B 25161.50235525 .00000504 00000-0 00000-0 0 9991 2 25867 49.3467 130.0237 8431467 309.4256 0.0412 0.37803328 15918 ...Continue Reading

[TLELIST] Current TLEs

June 8th 2025 PDT

HST 1 20580U 90037B 25158.55832899 .00004494 00000-0 16561-3 0 9997 2 20580 28.4671 110.1765 0002416 348.6174 11.4365 15.25222559731214 ISS (ZARYA) 1 25544U 98067A 25159.37832093 .00008600 00000-0 15811-3 0 9990 2 25544 51.6400 350.7259 0001640 196.3412 228.1285 15.50069816513790 CXO 1 25867U 99040B 25161.50235525 .00000504 00000-0 00000-0 0 9991 2 25867 49.3467 130.0237 8431467 309.4256 0.0412 0.37803328 15918 ...Continue Reading

[TLELIST] Current TLEs

June 7th 2025 PDT

HST 1 20580U 90037B 25158.16573218 .00004357 00000-0 16034-3 0 9994 2 20580 28.4670 112.8375 0002396 343.9806 16.0712 15.25218922731414 ISS (ZARYA) 1 25544U 98067A 25157.94842702 .00007781 00000-0 14396-3 0 9995 2 25544 51.6366 357.8157 0001641 203.6246 156.4667 15.50042058513576 CXO 1 25867U 99040B 25158.85815059 .00000415 00000-0 00000+0 0 9991 2 25867 49.3141 130.1099 8435467 309.4168 0.0193 0.37807738 27064 ...Continue Reading

[TLELIST] Current TLEs

June 6th 2025 PDT

HST 1 20580U 90037B 25156.59533618 .00004600 00000-0 16981-3 0 9991 2 20580 28.4668 123.4815 0002332 325.2676 34.7766 15.25205890731175 ISS (ZARYA) 1 25544U 98067A 25157.43265213 .00007769 00000-0 14379-3 0 9992 2 25544 51.6369 0.3711 0001685 200.3764 159.7158 15.50032533513491 CXO 1 25867U 99040B 25158.85815059 .00000415 00000-0 00000+0 0 9991 2 25867 49.3141 130.1099 8435467 309.4168 0.0193 0.37807738 27064 ...Continue Reading

[TLELIST] Current TLEs

June 5th 2025 PDT

HST 1 20580U 90037B 25155.22122889 .00004899 00000-0 18145-3 0 9998 2 20580 28.4669 132.7950 0002299 308.7272 51.3117 15.25191800730965 ISS (ZARYA) 1 25544U 98067A 25156.41218638 .00010954 00000-0 19949-3 0 9996 2 25544 51.6392 5.4243 0001910 184.4067 237.6437 15.50021068513332 CXO 1 25867U 99040B 25158.85815059 .00000415 00000-0 00000+0 0 9991 2 25867 49.3141 130.1099 8435467 309.4168 0.0193 0.37807738 27064 ...Continue Reading

[TLELIST] Current TLEs

June 4th 2025 PDT

HST 1 20580U 90037B 25154.37058473 .00008288 00000-0 31259-3 0 9997 2 20580 28.4667 138.5602 0002278 298.7347 61.3018 15.25185271730572 ISS (ZARYA) 1 25544U 98067A 25155.13777713 .00015482 00000-0 27871-3 0 9992 2 25544 51.6375 11.7378 0001897 183.5792 322.5485 15.50001302513135 CXO 1 25867U 99040B 25156.21351796 .00000375 00000-0 00000-0 0 9998 2 25867 49.2892 130.1907 8440951 309.4096 359.9647 0.37809731 15891 ...Continue Reading

[TLELIST] Current TLEs

June 4th 2025 PDT

HST 1 20580U 90037B 25154.37058473 .00008288 00000-0 31259-3 0 9997 2 20580 28.4667 138.5602 0002278 298.7347 61.3018 15.25185271730572 ISS (ZARYA) 1 25544U 98067A 25155.13777713 .00015482 00000-0 27871-3 0 9992 2 25544 51.6375 11.7378 0001897 183.5792 322.5485 15.50001302513135 CXO 1 25867U 99040B 25156.21351796 .00000375 00000-0 00000-0 0 9998 2 25867 49.2892 130.1907 8440951 309.4096 359.9647 0.37809731 15891 ...Continue Reading